Regional Weather Roundup
Issued by NWS

Home | Current Version | Previous Version | Text Only | Print | Product List | Glossary On
Versions: 1 2 3 4 5 6 7 8 9 10 11 12 13 14 15 16 17 18 19 20 21 22 23 24 25 26 27
000
ASUS42 KTBW 271317
RWRFL
FLORIDA REGIONAL WEATHER ROUNDUP
NATIONAL WEATHER SERVICE TAMPA BAY RUSKIN FL
900 AM EDT SAT MAY 27 2017

NOTE: "FAIR" INDICATES FEW OR NO CLOUDS BELOW 12,000 FEET WITH NO
SIGNIFICANT WEATHER AND/OR OBSTRUCTIONS TO VISIBILITY.

FLZ001>010-012>015-112-114-115-271400-
PANHANDLE FLORIDA

CITY           SKY/WX    TMP DP  RH WIND       PRES   REMARKS
PENSACOLA      PTSUNNY   78  71  79 E3        30.07R
PENSACOLA NAS  CLOUDY    78  72  81 CALM      30.07R
MILTON NAS     CLOUDY    72  69  90 E3        30.08
CRESTVIEW      PTSUNNY   68  63  84 CALM      30.11R
DUKE FIELD     CLOUDY    70  66  88 CALM      30.09R
VALPARAISO     PTSUNNY   76  68  76 CALM      30.08R
MARY ESTHER    DRIZZLE   76  69  79 N3        30.07
PANAMA CITY    FAIR      73  67  81 CALM      30.08R
TYNDALL AFB    MOSUNNY   76  67  73 W7        30.09R
APALACHICOLA   SUNNY     76  72  87 CALM      30.09R

STATION/POSITION SKY/WX   TEMP    WIND        PRES    WAVE   SWELL
                          AIR SEA DIR/SP/G            HT/PER HT/PER
                          (F)     (DEG/KT/KT) (MB)    (FT/S) (FT/S)
30.1N   87.6W              77 77  240/  6/  8 1017.9R   2/ 4   2/ 4
29.2N   88.2W              78 78  210/  8/ 10 1018.0R   3/ 5   2/ 5
28.8N   86.0W              77 77  230/  6/  6 1018.1R   2/ 3
PANAMA CITY BEAC           76 78  250/  5/  6 1019.1R
TOWER C                    75     270/  6/  7 1019.5R
28.5N   84.5W              75 77  290/  4/  4 1018.8R   1/ 7   2/ 7

$$
FLZ011-016>038-118-127-128-134-139-239-271400-
NORTH FLORIDA

CITY           SKY/WX    TMP DP  RH WIND       PRES   REMARKS
MARIANNA       SUNNY     70  65  84 CALM      30.08S
TALLAHASSEE    MOSUNNY   71  64  78 CALM      30.09R
PERRY          SUNNY     70  66  88 CALM      30.10R
CROSS CITY     SUNNY     72  66  83 NE3       30.11R
LAKE CITY      FAIR      72  64  78 NW6       30.10R
GAINESVILLE    SUNNY     72  64  76 NW3       30.10R
WILLISTON      SUNNY     72  68  88 CALM      30.11R
PALATKA        FAIR      72  66  83 NW3       30.10R
MAYPORT NAS    SUNNY     75  65  70 W5        30.08S
JACKSONVILLE   SUNNY     71  65  81 VRB3      30.07F
JAX NAS        MOSUNNY   72  63  73 NW3       30.09S
FERNANDINA BEA FAIR      77  64  65 NW3       30.06S
ST AUGUSTINE   SUNNY     74  64  71 NW3       30.09F
PALM COAST     FAIR      73  62  69 CALM      30.09R

STATION/POSITION SKY/WX   TEMP    WIND        PRES    WAVE   SWELL
                          AIR SEA DIR/SP/G            HT/PER HT/PER
                          (F)     (DEG/KT/KT) (MB)    (FT/S) (FT/S)
SHELL POINT      NOT AVBL
KEATON BEACH               72      60/  3/  3 1018.9R
CEDAR KEY                  73      70/  4/  4 1019.0R
FERNANDINA                 74 77  280/  4/  5 1019.1F
30.7N   81.3W                 78                N/A     2/ 7
MAYPORT                    73 78  290/  4/  6 1018.9S
31.4N   80.9W              74 77  260/ 10/ 12 1017.6R   2/ 4   2/ 7
ST AUGUSTINE               73 76  350/  5/  6 1019.8R

$$
FLZ040-043>046-052-053-057-058-063-144-271400-
INTERIOR CENTRAL FLORIDA

CITY           SKY/WX    TMP DP  RH WIND       PRES   REMARKS
OCALA          SUNNY     73  65  75 CALM      30.12R
THE VILLAGES     N/A     73  66  78 CALM      30.01R
LEESBURG       SUNNY     75  66  73 N5        30.11R
SANFORD        SUNNY     74  62  66 NW6       30.09R
ORLANDO EXEC   SUNNY     75  64  68 NW7       30.10R
ORLANDO INTL   SUNNY     72  65  78 N7        30.10R
KISSIMMEE      SUNNY     74  63  68 N8        30.11R
WINTER HAVEN   SUNNY     75  60  59 N7        30.11R
LAKELAND       SUNNY     73  61  64 N5        30.11R
BARTOW         SUNNY     72  61  68 CALM      30.10R
OKEECHOBEE     SUNNY     72  61  68 N5        30.09S

$$
FLZ041-047-054-059-064-141-147-271400-
EAST CENTRAL FLORIDA

CITY           SKY/WX    TMP DP  RH WIND       PRES   REMARKS
ORMOND BEACH   SUNNY     70  63  78 NW3       30.09R
DAYTONA BEACH  SUNNY     73  64  73 NW3       30.09R
DELAND         SUNNY     73  64  73 NW7       30.10R
NEW SMYRNA BEA SUNNY     75  63  64 CALM      30.10R
JFK SPACE CTR  CLOUDY    74  69  83 NW3       30.08R
TITUSVILLE     MOSUNNY   75  68  78 VRB6      30.09R
CAPE CANAVERAL CLOUDY    75  67  74 NW5       30.08R
PATRICK AFB    SUNNY     75  69  80 N6        30.08R
MELBOURNE      SUNNY     76  68  76 W5        30.08R
VERO BEACH     SUNNY     76  71  85 W5        30.09R
FT PIERCE      SUNNY     79  69  71 W6        30.08R
STUART         SUNNY     81  72  74 CALM      30.09R

STATION/POSITION SKY/WX   TEMP    WIND        PRES    WAVE   SWELL
                          AIR SEA DIR/SP/G            HT/PER HT/PER
                          (F)     (DEG/KT/KT) (MB)    (FT/S) (FT/S)
28.5N   80.2W              78 76   CALM  /  2 1019.7R   2/ 8   2/ 8
28.9N   78.5W              79 79  270/  2/  2 1019.0R   2/ 8   2/ 8
TRIDENT PIER               73 77  330/  4/  5 1020.3R
28.4N   80.5W                 74                N/A     1/ 8
27.5N   80.2W                 72                N/A     1/ 8

$$
FLZ050-056-061-142-242-148-248-149-249-151-251-155-255-
160-260-271400-
WEST CENTRAL FLORIDA

CITY           SKY/WX    TMP DP  RH WIND       PRES   REMARKS
CRYSTAL RIVER  FAIR      72  63  73 CALM      30.11R
INVERNESS      FAIR      70  64  83 CALM      30.11R
BROOKSVILLE    MOSUNNY   73  65  75 CALM      30.11R
CLEARWATER AIR FAIR      75  63  64 CALM      30.09R
ST PETE CLEARW NOT AVBL
TAMPA INTL     SUNNY     77  62  59 NE3       30.10R
TAMPA EXEC     SUNNY     73  64  73 CALM      30.11R
PLANT CITY     SUNNY     75  63  64 NE3       30.12R
MACDILL AFB    SUNNY     76  68  76 E6        30.09R
PETER O KNIGHT PTSUNNY   77  66  69 NE3       30.10R
ST PETERSBURG  SUNNY     77  67  71 E7        30.08R
SARASOTA       SUNNY     74  64  71 E5        30.08R
VENICE         FAIR      73  64  73 E7        30.10R

STATION/POSITION SKY/WX   TEMP    WIND        PRES    WAVE   SWELL
                          AIR SEA DIR/SP/G            HT/PER HT/PER
                          (F)     (DEG/KT/KT) (MB)    (FT/S) (FT/S)
27.3N   84.2W                 78                N/A     2/ 8
CLEARWATER BEACH           78 80   90/  2/  4 1019.1R
MIDDLE TAMPA BAY           73     100/  6/  7 1019.3R
VENICE                     74 81   50/  6/  7 1018.7R

$$
FLZ066-069-070-075>078-162-262-165-265-271400-
SOUTHWEST FLORIDA AND KEYS

CITY           SKY/WX    TMP DP  RH WIND       PRES   REMARKS
PUNTA GORDA    SUNNY     75  63  66 NE5       30.11R
FT MYERS       SUNNY     79  64  60 NE5       30.08S
SOUTHWEST INTL SUNNY     77  63  61 NE6       30.08S
NAPLES         SUNNY     80  65  59 NE6       30.07S
MARCO ISLAND   SUNNY     79  64  61 NE6       30.08S
IMMOKALEE      FAIR      75  63  64 VRB5      30.10R
MARATHON       SUNNY     88  79  74 S3        30.07R HX 103
KEY WEST NAS   PTSUNNY   85  78  80 E5        30.07R HX  96
KEY WEST INTL  MOSUNNY   84  78  82 SE8       30.08R HX  95

STATION/POSITION SKY/WX   TEMP    WIND        PRES    WAVE   SWELL
                          AIR SEA DIR/SP/G            HT/PER HT/PER
                          (F)     (DEG/KT/KT) (MB)    (FT/S) (FT/S)
NAPLES                        83   10/  4/  5 1018.4R
DRY TORTUGAS               82      90/  6/  6 1018.3R
SAND KEY                   81     100/  1/  2 1019.0R
LONG KEY                   85 86  130/  1/  2 1017.8R
MOLASSES REEF              82 82  200/  4/  5 1018.1R

$$
FLZ067-068-071>074-168-172>174-271400-
SOUTHEAST FLORIDA

CITY           SKY/WX    TMP DP  RH WIND       PRES   REMARKS
W PALM BEACH   PTSUNNY   79  75  87 NW5       30.08R
BOCA RATON     PTSUNNY   82  79  89 NW3       30.07R
FT LAUDER-EXEC MOSUNNY   86  77  74 W5        30.07R HX  97
FT LAUDERDALE  PTSUNNY   83  79  88 W7        30.07R
POMPANO BEACH  MOSUNNY   84  78  82 SW5       30.07R HX  95
PEMBROKE PINES MOSUNNY   83  77  82 W5        30.09R
OPA LOCKA      MOSUNNY   84  79  85 CALM      30.08R HX  96
MIAMI          MOSUNNY   85  77  77 VRB3      30.08R HX  95
WEST KENDALL   SUNNY     82  75  79 CALM      30.08R
HOMESTEAD      SUNNY     83  80  89 CALM      30.07R HX  95

STATION/POSITION SKY/WX   TEMP    WIND        PRES    WAVE   SWELL
                          AIR SEA DIR/SP/G            HT/PER HT/PER
                          (F)     (DEG/KT/KT) (MB)    (FT/S) (FT/S)
PORT EVERGLADES            83     130/  3/  4 1018.2R
VIRGINIA KEY               83 84  240/  4/  4 1017.7R
LAKE WORTH                 81 81              1019.3R
FOWEY ROCKS                85 82  190/  5/  6 1019.0R
SETTLEMENT POINT           82     190/  2/  3 1018.5R

$$





USA.gov is the U.S. government's official web portal to all federal, state and local government web resources and services.